AI0J-13 Weather Reports


Display with metric or nautical units.
time (UTC)temp
F
wind
direction
speed
MPH
gust
MPH
rain 1hr
in
rain 24hr
in
rain mn
in
humidity
%
barometer
mb
20240525102002 42 105 2.0 2.0 0.00 0.00 0.00 47 1004.3
20240525101502 42 91 2.0 3.0 0.00 0.00 0.00 46 1004.5
20240525100502 42 69 0.0 2.0 0.00 0.00 0.00 46 1004.6
20240525100002 42 111 0.0 3.0 0.00 0.00 0.00 47 1004.6
20240525095502 42 269 0.0 3.0 0.00 0.00 0.00 46 1004.5
20240525094502 42 86 2.0 4.0 0.00 0.00 0.00 46 1004.6
20240525094001 42 95 2.0 4.0 0.00 0.00 0.00 47 1004.6
20240525093001 42 89 0.0 4.0 0.00 0.00 0.00 47 1004.9
20240525092502 42 91 2.0 3.0 0.00 0.00 0.00 48 1004.7
20240525092002 42 93 3.0 4.0 0.00 0.00 0.00 47 1004.8
20240525091501 42 107 5.0 5.0 0.00 0.00 0.00 48 1004.8
20240525091002 42 118 3.0 4.0 0.00 0.00 0.00 48 1004.8
20240525090502 41 79 3.0 4.0 0.00 0.00 0.00 49 1004.8
20240525090002 41 102 3.0 3.0 0.00 0.00 0.00 50 1004.8
20240525085501 41 111 2.0 4.0 0.00 0.00 0.00 50 1004.9
20240525085002 40 101 2.0 5.0 0.00 0.00 0.00 53 1004.9
20240525084501 41 108 2.0 2.0 0.00 0.00 0.00 52 1005.1
20240525084002 42 150 0.0 2.0 0.00 0.00 0.00 50 1005.0
20240525083002 43 102 2.0 2.0 0.00 0.00 0.00 48 1005.2
20240525082501 42 140 3.0 5.0 0.00 0.00 0.00 49 1005.1
20240525082002 42 89 2.0 4.0 0.00 0.00 0.00 49 1005.1
20240525081502 42 98 2.0 3.0 0.00 0.00 0.00 49 1005.1
20240525080502 43 224 3.0 3.0 0.00 0.00 0.00 48 1005.4
20240525080001 43 262 3.0 4.0 0.00 0.00 0.00 48 1005.3
20240525075502 43 299 2.0 3.0 0.00 0.00 0.00 48 1005.5
20240525075001 43 280 4.0 6.0 0.00 0.00 0.00 48 1005.6
20240525074502 43 275 3.0 5.0 0.00 0.00 0.00 48 1005.7
20240525074001 42 282 3.0 5.0 0.00 0.00 0.00 48 1005.7
20240525072501 43 221 0.0 2.0 0.00 0.00 0.00 49 1005.8
20240525072002 43 237 0.0 2.0 0.00 0.00 0.00 49 1006.0
20240525071501 43 260 0.0 2.0 0.00 0.00 0.00 49 1006.1
20240525071002 43 196 2.0 2.0 0.00 0.00 0.00 48 1006.3
20240525070502 43 171 2.0 2.0 0.00 0.00 0.00 49 1006.3
20240525070001 43 232 2.0 3.0 0.00 0.00 0.00 48 1006.4
20240525065502 43 204 2.0 3.0 0.00 0.00 0.00 48 1006.4
20240525065002 43 357 0.0 2.0 0.00 0.00 0.00 48 1006.5
20240525064502 43 109 2.0 2.0 0.00 0.00 0.00 49 1006.6
20240525064002 43 103 2.0 2.0 0.00 0.00 0.00 50 1006.8
20240525063502 43 94 2.0 4.0 0.00 0.00 0.00 49 1007.0
20240525063002 43 98 2.0 3.0 0.00 0.00 0.00 48 1006.7
20240525062502 43 112 2.0 4.0 0.00 0.00 0.00 48 1006.8
20240525061502 44 126 2.0 4.0 0.00 0.00 0.00 47 1007.0
20240525061001 44 121 2.0 5.0 0.00 0.00 0.00 47 1007.0
20240525060502 44 78 2.0 3.0 0.00 0.00 0.00 46 1007.0
20240525060002 44 139 0.0 4.0 0.00 0.00 0.00 46 1007.2
20240525055501 44 82 3.0 4.0 0.00 0.00 0.00 46 1007.0
20240525055002 44 81 0.0 3.0 0.00 0.00 0.00 47 1007.2
20240525054501 44 140 2.0 3.0 0.00 0.00 0.00 47 1007.2
20240525054002 43 119 0.0 2.0 0.00 0.00 0.00 47 1007.3
20240525053501 44 46 0.0 3.0 0.00 0.00 0.00 46 1007.5
20240525053002 44 79 2.0 4.0 0.00 0.00 0.00 46 1007.6
20240525051502 44 72 0.0 3.0 0.00 0.00 0.00 46 1007.5
20240525051001 44 74 2.0 6.0 0.00 0.00 0.00 45 1007.5
20240525050502 44 89 2.0 5.0 0.00 0.00 0.00 47 1007.4
20240525050001 44 87 2.0 3.0 0.00 0.00 0.00 47 1007.5
20240525045502 44 111 2.0 3.0 0.00 0.00 0.00 47 1007.9
20240525045001 43 29 0.0 2.0 0.00 0.00 0.00 47 1007.7
20240525044502 43 80 5.0 5.0 0.00 0.00 0.00 48 1007.9
20240525044002 43 84 3.0 4.0 0.00 0.00 0.00 49 1007.5
20240525043502 43 122 0.0 4.0 0.00 0.00 0.00 49 1007.6
20240525043001 43 298 2.0 3.0 0.00 0.00 0.00 49 1007.8
20240525042502 43 117 4.0 6.0 0.00 0.00 0.00 50 1007.9
20240525042001 44 210 2.0 4.0 0.00 0.00 0.00 48 1007.5
20240525041502 44 226 6.0 8.0 0.00 0.00 0.00 48 1007.4
20240525041002 44 224 5.0 11.0 0.00 0.00 0.00 47 1007.6
20240525040502 44 237 6.0 9.0 0.00 0.00 0.00 47 1007.3
20240525040002 44 235 9.0 14.0 0.00 0.00 0.00 47 1007.4
20240525035501 44 209 4.0 19.0 0.00 0.00 0.00 46 1007.4
20240525035002 45 167 4.0 18.0 0.00 0.00 0.00 46 1007.3
20240525034502 45 228 3.0 13.0 0.00 0.00 0.00 46 1007.2
20240525033502 45 229 7.0 16.0 0.00 0.00 0.00 45 1007.6
20240525033001 45 244 4.0 14.0 0.00 0.00 0.00 44 1007.1
20240525032502 45 261 4.0 22.0 0.00 0.00 0.00 43 1007.2
20240525032002 45 190 5.0 16.0 0.00 0.00 0.00 44 1007.0
20240525031503 45 257 7.0 17.0 0.00 0.00 0.00 44 1006.9
20240525031002 45 249 12.0 19.0 0.00 0.00 0.00 44 1007.1
20240525030502 45 260 12.0 16.0 0.00 0.00 0.00 44 1006.9
20240525030002 45 266 6.0 14.0 0.00 0.00 0.00 44 1006.9
20240525025503 46 141 4.0 16.0 0.00 0.00 0.00 43 1006.9
20240525025001 45 252 10.0 14.0 0.00 0.00 0.00 44 1007.1
20240525024502 45 180 4.0 20.0 0.00 0.00 0.00 43 1006.9
20240525024003 45 241 7.0 19.0 0.00 0.00 0.00 44 1007.1
20240525023002 45 238 7.0 13.0 0.00 0.00 0.00 44 1007.1
20240525022502 45 245 5.0 9.0 0.00 0.00 0.00 44 1007.2
20240525022003 45 132 2.0 8.0 0.00 0.00 0.00 44 1007.3
20240525021501 45 242 3.0 9.0 0.00 0.00 0.00 43 1007.4
20240525021002 46 236 5.0 9.0 0.00 0.00 0.00 42 1007.2
20240525020501 46 232 6.0 19.0 0.00 0.00 0.00 41 1007.1
20240525020002 46 264 5.0 14.0 0.00 0.00 0.00 41 1007.1
20240525015502 46 242 4.0 15.0 0.00 0.00 0.00 40 1007.3
20240525015002 46 197 3.0 13.0 0.00 0.00 0.00 40 1007.4
20240525014502 46 261 5.0 11.0 0.00 0.00 0.00 39 1007.4
20240525014001 47 266 6.0 12.0 0.00 0.00 0.00 38 1007.3
20240525013502 47 178 6.0 13.0 0.00 0.00 0.00 37 1007.3
20240525013001 48 259 5.0 14.0 0.00 0.00 0.00 36 1007.4
20240525012502 48 227 7.0 13.0 0.00 0.00 0.00 36 1007.6
20240525012001 48 252 5.0 17.0 0.00 0.00 0.00 34 1007.6
20240525011502 49 285 2.0 16.0 0.00 0.00 0.00 33 1007.3
20240525011001 50 67 6.0 8.0 0.00 0.00 0.00 33 1007.5
20240525010502 51 86 4.0 7.0 0.00 0.00 0.00 32 1007.3
20240525010002 51 62 9.0 11.0 0.00 0.00 0.00 31 1007.5
20240525005002 53 238 4.0 11.0 0.00 0.00 0.00 28 1007.3
20240525004002 53 334 3.0 9.0 0.00 0.00 0.00 28 1007.2
20240525003502 53 276 9.0 14.0 0.00 0.00 0.00 27 1007.2
20240525003002 52 291 7.0 14.0 0.00 0.00 0.00 27 1007.2
20240525002501 52 296 5.0 12.0 0.00 0.00 0.00 27 1007.1
20240525002002 53 234 2.0 10.0 0.00 0.00 0.00 26 1007.4
20240525001001 55 300 10.0 17.0 0.00 0.00 0.00 25 1007.3
20240525000502 54 230 2.0 15.0 0.00 0.00 0.00 25 1007.4
20240525000002 54 274 9.0 25.0 0.00 0.00 0.00 25 1007.2
20240524235502 54 198 3.0 13.0 0.00 0.00 0.00 25 1007.3
20240524234502 56 253 7.0 10.0 0.00 0.00 0.00 24 1007.7
20240524234002 55 209 3.0 13.0 0.00 0.00 0.00 24 1007.5
20240524233002 55 165 4.0 15.0 0.00 0.00 0.00 24 1007.7
20240524232501 56 53 6.0 11.0 0.00 0.00 0.00 23 1007.3
20240524231502 55 259 12.0 18.0 0.00 0.00 0.00 23 1007.7
20240524231001 54 269 10.0 18.0 0.00 0.00 0.00 23 1007.3
20240524230002 57 267 7.0 16.0 0.00 0.00 0.00 21 1007.4
20240524225501 58 283 8.0 9.0 0.00 0.00 0.00 21 1007.2
20240524225002 56 255 4.0 11.0 0.00 0.00 0.00 22 1007.4
20240524224501 55 254 9.0 11.0 0.00 0.00 0.00 22 1007.6
20240524224002 57 240 8.0 17.0 0.00 0.00 0.00 21 1007.4
20240524223502 58 113 5.0 6.0 0.00 0.00 0.00 21 1007.3
20240524222502 55 229 6.0 16.0 0.00 0.00 0.00 21 1007.3
20240524222002 58 171 3.0 7.0 0.00 0.00 0.00 21 1007.3
20240524221002 55 276 9.0 19.0 0.00 0.00 0.00 21 1007.6
20240524220502 59 280 6.0 13.0 0.00 0.00 0.00 20 1007.2
20240524220002 57 250 7.0 21.0 0.00 0.00 0.00 21 1007.6
20240524215502 58 314 5.0 15.0 0.00 0.00 0.00 20 1007.4
20240524215003 57 175 4.0 19.0 0.00 0.00 0.00 21 1007.5
20240524214501 60 289 9.0 12.0 0.00 0.00 0.00 20 1007.2
20240524214002 59 169 4.0 8.0 0.00 0.00 0.00 20 1007.4
20240524213501 57 184 5.0 18.0 0.00 0.00 0.00 21 1007.3
20240524213002 56 250 8.0 20.0 0.00 0.00 0.00 20 1007.3
20240524212002 59 230 4.0 13.0 0.00 0.00 0.00 20 1007.7
20240524211501 56 140 4.0 13.0 0.00 0.00 0.00 21 1007.5
20240524211002 59 299 4.0 11.0 0.00 0.00 0.00 20 1007.4
20240524210002 58 264 13.0 25.0 0.00 0.00 0.00 19 1007.7
20240524205501 54 276 5.0 27.0 0.00 0.00 0.00 20 1007.7
20240524205002 55 253 9.0 16.0 0.00 0.00 0.00 20 1007.5
20240524204501 56 251 11.0 16.0 0.00 0.00 0.00 20 1007.6
20240524204002 54 259 10.0 15.0 0.00 0.00 0.00 20 1007.7
20240524203501 56 269 13.0 16.0 0.00 0.00 0.00 19 1008.0
20240524203002 56 249 8.0 10.0 0.00 0.00 0.00 19 1007.7
20240524202502 54 281 9.0 23.0 0.00 0.00 0.00 19 1007.7
20240524202001 53 268 6.0 17.0 0.00 0.00 0.00 19 1007.7
20240524201002 53 257 4.0 20.0 0.00 0.00 0.00 18 1007.9
20240524200502 54 284 6.0 18.0 0.00 0.00 0.00 19 1007.8
20240524200001 53 262 12.0 24.0 0.00 0.00 0.00 18 1007.5
20240524195502 53 273 12.0 22.0 0.00 0.00 0.00 19 1007.6
20240524195002 52 275 7.0 19.0 0.00 0.00 0.00 19 1007.7
20240524194003 54 265 6.0 13.0 0.00 0.00 0.00 20 1007.8
20240524193501 54 17 5.0 7.0 0.00 0.00 0.00 21 1007.5
20240524193002 53 238 4.0 5.0 0.00 0.00 0.00 23 1007.7
20240524192501 52 239 4.0 13.0 0.00 0.00 0.00 21 1008.0
20240524192002 52 268 12.0 25.0 0.00 0.00 0.00 23 1008.0
20240524191001 53 267 7.0 16.0 0.00 0.00 0.00 20 1007.8
20240524190502 52 281 10.0 14.0 0.00 0.00 0.00 22 1008.0
20240524190001 53 203 3.0 20.0 0.00 0.00 0.00 22 1007.7
20240524185502 52 279 13.0 21.0 0.00 0.00 0.00 20 1007.8
20240524185002 51 265 4.0 21.0 0.00 0.00 0.00 21 1008.0
20240524184502 52 272 4.0 20.0 0.00 0.00 0.00 20 1007.7
20240524184002 50 263 12.0 22.0 0.00 0.00 0.00 23 1007.7
20240524183502 52 261 12.0 14.0 0.00 0.00 0.00 26 1007.9
20240524183002 52 245 5.0 9.0 0.00 0.00 0.00 26 1007.7
20240524182502 54 14 2.0 11.0 0.00 0.00 0.00 25 1007.9
20240524181502 51 235 4.0 8.0 0.00 0.00 0.00 29 1008.0
20240524181001 53 254 10.0 16.0 0.00 0.00 0.00 27 1007.9
20240524180502 51 288 7.0 10.0 0.00 0.00 0.00 28 1007.9
20240524180002 50 261 8.0 14.0 0.00 0.00 0.00 29 1007.9
20240524175002 48 242 5.0 15.0 0.00 0.00 0.00 28 1007.9
20240524174501 48 260 8.0 20.0 0.00 0.00 0.00 28 1007.7
20240524174002 48 278 10.0 18.0 0.00 0.00 0.00 27 1007.8
20240524173501 48 277 9.0 18.0 0.00 0.00 0.00 29 1007.8
20240524172501 47 228 9.0 17.0 0.00 0.00 0.00 28 1007.6
20240524172002 47 250 10.0 19.0 0.00 0.00 0.00 29 1007.8
20240524171502 47 289 9.0 19.0 0.00 0.00 0.00 29 1007.8
20240524171002 47 266 8.0 17.0 0.00 0.00 0.00 29 1007.7
20240524170502 47 282 10.0 15.0 0.00 0.00 0.00 29 1007.8
20240524170002 46 282 3.0 15.0 0.00 0.00 0.00 30 1007.9
20240524165501 46 254 18.0 24.0 0.00 0.00 0.00 29 1007.8
20240524165002 46 304 7.0 15.0 0.00 0.00 0.00 29 1007.9
20240524164501 46 274 6.0 17.0 0.00 0.00 0.00 29 1007.8
20240524164002 45 256 10.0 23.0 0.00 0.00 0.00 29 1007.9
20240524163501 46 232 7.0 10.0 0.00 0.00 0.00 28 1007.9
20240524163002 46 178 4.0 15.0 0.00 0.00 0.00 28 1007.8
20240524162502 44 276 11.0 19.0 0.00 0.00 0.00 28 1007.8
20240524162002 45 254 8.0 17.0 0.00 0.00 0.00 28 1008.0
20240524161501 44 262 8.0 24.0 0.00 0.00 0.00 28 1007.9
20240524161002 44 255 9.0 20.0 0.00 0.00 0.00 29 1007.8
20240524160501 44 257 14.0 24.0 0.00 0.00 0.00 29 1007.9
20240524160002 43 251 15.0 36.0 0.00 0.00 0.00 29 1007.9
20240524155001 45 292 7.0 17.0 0.00 0.00 0.00 30 1007.9
20240524154502 44 245 13.0 19.0 0.00 0.00 0.00 30 1007.9
20240524153501 43 127 3.0 20.0 0.00 0.00 0.00 31 1007.8
20240524153002 44 15 4.0 13.0 0.00 0.00 0.00 30 1007.6
20240524152501 44 256 15.0 15.0 0.00 0.00 0.00 30 1007.7
20240524152002 42 253 11.0 30.0 0.00 0.00 0.00 31 1007.8
20240524151501 44 265 10.0 18.0 0.00 0.00 0.00 31 1007.6
20240524150502 42 241 8.0 19.0 0.00 0.00 0.00 32 1007.7
20240524150001 41 257 8.0 32.0 0.00 0.00 0.00 31 1007.6
20240524145502 42 279 6.0 23.0 0.00 0.00 0.00 32 1007.5
20240524145001 41 279 9.0 17.0 0.00 0.00 0.00 32 1007.5
20240524144002 42 281 6.0 14.0 0.00 0.00 0.00 32 1007.6
20240524143502 40 272 10.0 20.0 0.00 0.00 0.00 33 1007.4
20240524143001 40 241 7.0 20.0 0.00 0.00 0.00 34 1007.4
20240524142502 40 253 13.0 20.0 0.00 0.00 0.00 34 1007.4
20240524142002 40 264 8.0 19.0 0.00 0.00 0.00 33 1007.0
20240524141511 39 267 6.0 26.0 0.00 0.00 0.00 35 1007.1
20240524141001 39 273 14.0 18.0 0.00 0.00 0.00 35 1007.1
20240524140503 38 207 4.0 24.0 0.00 0.00 0.00 35 1007.1
20240524140002 39 293 6.0 21.0 0.00 0.00 0.00 35 1007.0
20240524135501 39 170 4.0 9.0 0.00 0.00 0.00 36 1007.3
20240524135002 38 255 13.0 21.0 0.00 0.00 0.00 37 1006.9
20240524134502 38 246 12.0 15.0 0.00 0.00 0.00 37 1007.0
20240524134002 38 180 6.0 22.0 0.00 0.00 0.00 38 1006.7
20240524133502 37 157 3.0 22.0 0.00 0.00 0.00 39 1006.6
20240524133001 37 265 17.0 17.0 0.00 0.00 0.00 38 1006.6
20240524132502 37 191 6.0 18.0 0.00 0.00 0.00 38 1006.6
20240524132001 37 190 8.0 19.0 0.00 0.00 0.00 38 1006.5
20240524131502 37 128 2.0 20.0 0.00 0.00 0.00 37 1006.2
20240524131001 36 242 8.0 24.0 0.00 0.00 0.00 38 1006.4
20240524130502 36 241 13.0 19.0 0.00 0.00 0.00 38 1006.7
20240524130002 35 195 9.0 22.0 0.00 0.00 0.00 40 1006.4
20240524125501 35 245 9.0 28.0 0.00 0.00 0.00 39 1006.2
20240524124001 34 227 3.0 27.0 0.00 0.00 0.00 41 1006.4
20240524123001 34 221 6.0 12.0 0.00 0.00 0.00 41 1006.4
20240524122502 33 254 14.0 18.0 0.00 0.00 0.00 41 1006.3
20240524122001 33 242 11.0 15.0 0.00 0.00 0.00 42 1006.6
20240524121502 32 264 11.0 17.0 0.00 0.00 0.00 42 1006.4
20240524121001 32 263 11.0 16.0 0.00 0.00 0.00 42 1006.3
20240524120502 32 259 5.0 17.0 0.00 0.00 0.00 43 1006.3
20240524120001 32 237 9.0 22.0 0.00 0.00 0.00 43 1006.4
20240524115002 32 249 22.0 27.0 0.00 0.00 0.00 45 1006.0
20240524114002 31 247 14.0 31.0 0.00 0.00 0.00 47 1006.0
20240524113002 31 246 18.0 30.0 0.00 0.00 0.00 48 1006.0
20240524112502 31 257 20.0 31.0 0.00 0.00 0.00 48 1006.0
20240524112002 31 254 18.0 33.0 0.00 0.00 0.00 49 1006.1
20240524111503 31 241 9.0 26.0 0.00 0.00 0.00 49 1006.1
20240524110502 31 253 12.0 27.0 0.00 0.00 0.00 50 1005.9
20240524110001 31 251 10.0 35.0 0.00 0.00 0.00 49 1005.8
20240524105502 31 265 14.0 25.0 0.00 0.00 0.00 49 1005.7
20240524103501 30 265 15.0 27.0 0.00 0.00 0.00 53 1005.7
20240524103002 31 247 22.0 28.0 0.00 0.00 0.00 53 1005.7